Total_Precipitation_Accumulation
1.00 1.06 1.10 1.09 1.01 1.12 1.17 1.16 1.19 1.21 1.14 1.14 1.18 1.23 1.20 1.23 1.32 1.41 1.31 1.35 1.46 1.60 1.55 1.51 1.56 1.62 1.58 1.49 1.52 1.52 1.54 1.74 1.72 1.39 1.42 1.46 1.35 1.17 1.07 1.00 0.96 1.02 1.02
0.93 1.05 1.12 1.17 1.07 1.07 1.10 1.18 1.23 1.30 1.34 1.29 1.25 1.27 1.19 1.21 1.37 1.42 1.42 1.44 1.46 1.48 1.63 1.84 1.82 1.78 1.67 1.53 1.61 1.57 1.56 1.79 1.73 1.55 1.61 1.64 1.58 1.36 1.23 1.12 0.96 0.94 0.99
0.97 1.03 1.11 1.17 1.12 1.10 1.23 1.33 1.34 1.45 1.54 1.54 1.50 1.41 1.31 1.28 1.33 1.38 1.43 1.44 1.48 1.55 1.66 1.75 1.82 1.94 1.81 1.67 1.63 1.61 1.66 1.78 1.86 1.75 1.73 1.86 1.82 1.59 1.42 1.20 0.99 1.00 0.89
0.95 1.06 1.14 1.20 1.21 1.22 1.32 1.41 1.43 1.49 1.60 1.68 1.64 1.58 1.54 1.44 1.32 1.30 1.31 1.36 1.50 1.63 1.67 1.61 1.72 1.97 2.04 1.97 1.80 1.74 1.79 1.90 1.96 1.95 1.91 1.99 2.02 1.93 1.71 1.41 1.23 1.11 0.97
1.11 1.25 1.32 1.43 1.49 1.52 1.59 1.61 1.57 1.57 1.57 1.71 1.80 1.80 1.72 1.54 1.32 1.32 1.40 1.37 1.50 1.55 1.50 1.41 1.41 1.60 1.82 1.92 1.77 1.74 1.79 1.80 1.83 1.90 1.92 1.95 1.96 2.03 1.87 1.58 1.38 1.26 1.09
1.28 1.56 1.60 1.68 1.74 1.83 1.97 2.04 1.96 1.92 1.97 2.02 1.99 1.92 1.81 1.47 1.46 1.40 1.40 1.44 1.52 1.50 1.43 1.37 1.25 1.20 1.24 1.40 1.55 1.67 1.78 1.73 1.69 1.81 1.94 1.97 1.94 1.96 1.97 1.82 1.58 1.37 1.23
1.37 1.62 1.82 1.92 1.99 2.08 2.18 2.20 2.13 2.20 2.33 2.35 2.24 2.06 1.92 1.82 1.67 1.44 1.37 1.33 1.34 1.34 1.35 1.32 1.12 1.01 1.10 1.07 1.23 1.36 1.48 1.55 1.55 1.65 1.78 1.88 1.99 2.11 2.15 1.94 1.75 1.59 1.37
1.60 1.79 1.94 1.96 1.97 2.03 2.11 2.05 2.07 2.18 2.25 2.28 2.24 2.12 2.01 1.92 1.76 1.45 1.36 1.20 1.21 1.24 1.26 1.25 1.20 1.13 1.10 1.14 1.16 1.16 1.17 1.25 1.35 1.37 1.49 1.69 1.89 2.08 2.21 2.10 1.96 1.68 1.42
1.66 1.75 1.77 1.85 1.93 1.99 2.02 2.06 2.09 2.09 1.99 1.91 1.88 1.89 1.87 1.93 1.84 1.50 1.33 1.21 1.31 1.32 1.31 1.30 1.29 1.23 1.30 1.15 1.07 1.09 1.11 1.16 1.21 1.27 1.29 1.44 1.71 1.88 1.95 1.97 1.88 1.69 1.46
1.70 1.74 1.73 1.83 1.92 1.99 2.04 2.08 2.01 1.93 1.88 1.83 1.75 1.76 1.76 1.77 1.72 1.36 1.25 1.19 1.31 1.33 1.36 1.35 1.30 1.19 1.17 1.04 0.96 1.04 1.04 1.06 1.12 1.12 1.14 1.15 1.22 1.51 1.80 1.64 1.59 1.58 1.42
1.49 1.57 1.65 1.79 1.93 1.98 2.00 1.96 1.90 1.83 1.84 1.85 1.77 1.68 1.64 1.64 1.65 1.37 1.22 1.11 1.25 1.38 1.37 1.33 1.32 1.24 1.00 0.92 0.88 0.91 0.95 0.98 1.08 1.10 1.07 1.09 1.17 1.30 1.50 1.54 1.47 1.41 1.36
1.30 1.36 1.40 1.50 1.64 1.69 1.74 1.69 1.69 1.66 1.62 1.60 1.56 1.48 1.42 1.44 1.40 1.31 1.12 1.00 1.08 1.23 1.34 1.36 1.38 1.23 0.96 0.84 0.73 0.71 0.69 0.65 0.75 0.88 0.95 0.99 1.02 1.13 1.25 1.38 1.42 1.40 1.27
1.13 1.20 1.24 1.27 1.41 1.54 1.57 1.51 1.49 1.48 1.45 1.41 1.37 1.32 1.30 1.28 1.23 1.07 0.92 0.83 0.87 1.00 1.18 1.33 1.25 1.06 0.88 0.74 0.67 0.63 0.57 0.53 0.63 0.75 0.83 0.87 0.88 0.94 1.17 1.44 1.58 1.59 1.47
1.18 1.18 1.20 1.24 1.33 1.55 1.63 1.50 1.41 1.38 1.33 1.31 1.27 1.27 1.31 1.34 1.28 1.09 0.89 0.75 0.78 0.89 0.98 1.07 1.09 1.07 1.01 0.93 0.81 0.70 0.61 0.64 0.72 0.79 0.89 1.00 1.08 1.15 1.23 1.36 1.54 1.58 1.55
0.99 0.96 0.95 1.02 1.14 1.34 1.45 1.42 1.28 1.24 1.28 1.30 1.27 1.24 1.18 1.15 1.16 1.06 0.90 0.86 0.90 0.97 0.97 1.03 1.05 1.13 1.17 1.18 1.13 1.05 0.97 0.93 0.87 0.84 0.97 1.08 1.12 1.15 1.17 1.26 1.40 1.42 1.32
0.98 0.92 0.91 0.90 0.99 1.17 1.37 1.44 1.29 1.10 1.12 1.11 1.05 1.01 0.97 0.93 0.90 0.89 0.85 0.83 0.88 0.92 0.87 1.00 1.15 1.26 1.33 1.34 1.32 1.21 1.08 0.97 0.89 0.90 0.96 1.05 1.09 1.10 1.13 1.23 1.35 1.36 1.24
1.01 0.97 0.94 0.92 0.95 1.05 1.27 1.50 1.55 1.31 1.10 1.00 0.88 0.77 0.73 0.71 0.74 0.78 0.82 0.78 0.76 0.74 0.72 0.87 1.04 1.13 1.22 1.24 1.23 1.15 1.09 1.03 1.00 1.02 1.08 1.12 1.17 1.17 1.18 1.19 1.28 1.32 1.23
0.98 0.94 0.86 0.83 0.87 0.98 1.19 1.47 1.64 1.58 1.40 1.15 0.89 0.72 0.65 0.59 0.59 0.67 0.72 0.68 0.64 0.59 0.57 0.69 0.81 0.93 1.06 1.19 1.25 1.22 1.18 1.16 1.09 1.06 1.13 1.15 1.18 1.21 1.19 1.14 1.18 1.25 1.23
0.90 0.89 0.84 0.82 0.86 0.92 1.12 1.38 1.57 1.63 1.55 1.40 1.08 0.77 0.64 0.57 0.57 0.64 0.65 0.63 0.65 0.61 0.59 0.63 0.68 0.80 0.98 1.15 1.26 1.30 1.29 1.22 1.10 1.08 1.11 1.15 1.15 1.19 1.17 1.10 1.15 1.25 1.25
0.78 0.78 0.68 0.67 0.72 0.75 0.86 1.08 1.32 1.46 1.41 1.33 1.13 0.76 0.54 0.50 0.56 0.70 0.76 0.81 0.81 0.72 0.68 0.68 0.71 0.79 0.94 1.11 1.21 1.25 1.29 1.23 1.17 1.14 1.12 1.16 1.18 1.19 1.17 1.13 1.13 1.20 1.17
0.71 0.68 0.59 0.51 0.57 0.62 0.69 0.88 1.13 1.29 1.25 1.16 1.02 0.70 0.51 0.51 0.63 0.74 0.87 0.90 0.89 0.81 0.77 0.72 0.72 0.77 0.89 1.03 1.12 1.17 1.22 1.20 1.15 1.13 1.12 1.14 1.18 1.19 1.25 1.24 1.18 1.20 1.22
0.58 0.59 0.55 0.53 0.56 0.58 0.61 0.77 1.01 1.17 1.13 1.07 0.97 0.74 0.60 0.61 0.71 0.80 0.85 0.83 0.79 0.72 0.68 0.72 0.75 0.80 0.87 0.95 1.03 1.13 1.18 1.18 1.16 1.14 1.14 1.16 1.20 1.21 1.25 1.27 1.22 1.20 1.21
0.45 0.46 0.44 0.45 0.48 0.49 0.58 0.75 0.92 1.00 0.98 0.93 0.82 0.69 0.66 0.69 0.71 0.76 0.79 0.78 0.75 0.71 0.70 0.74 0.81 0.84 0.89 0.92 0.96 1.04 1.08 1.07 1.07 1.08 1.15 1.19 1.21 1.21 1.22 1.22 1.19 1.20 1.17
0.39 0.41 0.43 0.45 0.47 0.54 0.63 0.76 0.83 0.83 0.81 0.79 0.75 0.75 0.77 0.78 0.74 0.72 0.76 0.77 0.79 0.80 0.79 0.78 0.80 0.80 0.82 0.84 0.87 0.89 0.92 0.90 0.87 0.90 0.96 1.03 1.08 1.11 1.13 1.17 1.18 1.18 1.18
0.34 0.37 0.42 0.49 0.52 0.58 0.66 0.74 0.76 0.75 0.71 0.69 0.69 0.72 0.74 0.70 0.73 0.75 0.78 0.80 0.81 0.78 0.74 0.73 0.75 0.73 0.70 0.69 0.68 0.70 0.74 0.69 0.62 0.65 0.73 0.87 0.95 1.00 1.01 1.06 1.12 1.16 1.18
0.36 0.36 0.42 0.47 0.49 0.54 0.64 0.72 0.69 0.63 0.58 0.57 0.60 0.66 0.68 0.68 0.73 0.76 0.78 0.81 0.83 0.80 0.77 0.74 0.68 0.67 0.66 0.65 0.64 0.65 0.61 0.51 0.46 0.49 0.53 0.66 0.81 0.89 0.94 1.00 1.04 1.12 1.14